Location: Pandora
(40.9481°N, 83.9611°W)
Time: 03:20:47
(UTC-04:00)

ISS - Pass Details

Date: 04 October 2021
Orbit: 417 x 423 km, 51.6° (Epoch: 27 October)

Event Time Altitude Azimuth Distance (km) Brightness Sun altitude
Rises 19:44:38 0° 309° (NW) 2,364 1.0 -6.9°
Reaches altitude 10° 19:46:48 10° 316° (NW) 1,499 -0.3 -7.3°
Maximum altitude 19:50:02 43° 30° (NNE) 601 -3.2 -7.9°
Enters shadow 19:53:04 11° 103° (ESE) 1,421 -1.7 -8.5°
